Flag for Germany Weather past 2 weeks in Niederkassel, North Rhine-Westphalia, Germany

Now
37 °F

Partly sunny.


Feels Like: 33 °F
Forecast: 35 / 60 °F
Wind: 5 mph from Southwest

Location: Bonn-Hangelar

Current Time: Apr 28, 2015 at 8:18:19 AM

Latest Report: Apr 28, 2015 at 8:00 AM


Visibility: 19 mi

Pressure: 29.97 "Hg

Humidity: 92%

Dew point: 35 °F

Location of NiederkasselLocation

Historic Weather in Niederkassel — Graph

°F

Niederkassel temperature yesterday

Maximum temperature yesterday: 53 °F (at 12:00 AM)
Minimum temperature yesterday: 43 °F (at 10:00 AM)
Average temperature yesterday: 47 °F

Past Weeks' High & Low Weather Summary

 TemperatureHumidityPressure
High72 °F (Apr 15, 5:00 PM)100% (Apr 27, 5:00 AM)30.50 "Hg (Apr 27, 5:00 AM)
Low33 °F (Apr 28, 6:00 AM)33% (Apr 21, 5:00 PM)29.64 "Hg (Apr 27, 4:00 AM)
Average51 °F70%30.11 "Hg
* Reported Apr 13 7:00 AM — Apr 28 7:00 AM, Niederkassel, Weather by CustomWeather, © 2015

Note: Actual official high and low records may vary slightly from our data, if they occured in-between our weather recording intervals... More about our weather records

Advertising

Niederkassel weather history for previous 24 hours

 ConditionsComfort  
Time TempWeatherWind HumidityBarometerVisibility
7:00 AM
Tue, Apr 28
33 °FPartly sunny.3 mph95%29.96 "Hg22 mi
6:00 AM33 °FPassing clouds.2 mph93%29.93 "Hg22 mi
5:00 AM34 °FPassing clouds.2 mph92%29.92 "Hg19 mi
4:00 AM36 °FPassing clouds.1 mph89%29.91 "Hg22 mi
3:00 AM39 °FOvercast.1 mph81%29.89 "Hg25 mi
2:00 AM39 °FOvercast.2 mph79%29.89 "Hg31 mi
1:00 AM41 °FOvercast.5 mph77%29.87 "Hg31 mi
12:00 AM41 °FOvercast.5 mph80%29.85 "Hg28 mi
11:00 PM
Mon, Apr 27
43 °FOvercast.5 mph77%29.84 "Hg17 mi
10:00 PM46 °FOvercast.1 mph78%29.83 "Hg18 mi
9:00 PM46 °FOvercast.1 mph79%29.81 "Hg17 mi
8:00 PM47 °FOvercast.2 mph76%29.79 "Hg19 mi
7:00 PM48 °FOvercast.2 mph70%29.78 "Hg28 mi
6:00 PM48 °FOvercast.2 mph73%29.78 "Hg25 mi
5:00 PM47 °FOvercast.5 mph72%29.78 "Hg16 mi
4:00 PM47 °FOvercast.6 mph75%29.78 "Hg12 mi
3:00 PM46 °FOvercast.5 mph82%29.78 "Hg11 mi
2:00 PM45 °FOvercast.5 mph86%29.78 "Hg11 mi
1:00 PM46 °FOvercast.6 mph87%29.77 "Hg9 mi
12:00 PM45 °FOvercast.6 mph91%29.76 "Hg9 mi
11:00 AM44 °FLow clouds.6 mph97%29.75 "Hg9 mi
10:00 AM43 °FFog.6 mph100%29.74 "Hg3 mi
9:00 AM43 °FDense fog.6 mph100%29.72 "Hg1 mi
8:00 AM44 °FRain. Dense fog.5 mph100%29.70 "Hg1 mi
Weather by CustomWeather, © 2015

See weather overviewHow to use our weather pages